KD7MPG-3 Weather Reports


time (UTC)temp
C
wind
direction
speed
KPH
gust
KPH
rain 1hr
cm
rain 24hr
cm
rain mn
cm
humidity
%
barometer
mb
20260505124840 12 269 1.6 6.4 0.00 0.00 0.00 89 1023.8
20260505124340 12 222 3.2 6.4 0.00 0.00 0.00 89 1023.8
20260505123841 12 269 1.6 6.4 0.00 0.00 0.00 89 1023.8
20260505123338 12 234 1.6 6.4 0.00 0.00 0.00 89 1023.8
20260505122836 12 231 1.6 4.8 0.00 0.00 0.00 89 1023.9
20260505122336 12 238 1.6 4.8 0.00 0.00 0.00 89 1023.8
20260505121832 12 235 1.6 6.4 0.00 0.00 0.00 89 1023.9
20260505121332 12 227 3.2 6.4 0.00 0.00 0.00 89 1023.8
20260505120833 12 229 3.2 6.4 0.00 0.00 0.00 89 1023.8
20260505120332 12 211 3.2 6.4 0.00 0.00 0.00 89 1023.6
20260505115829 12 265 3.2 6.4 0.00 0.00 0.00 89 1023.7
20260505115330 12 259 1.6 4.8 0.00 0.00 0.00 88 1023.7
20260505114824 12 269 1.6 6.4 0.00 0.00 0.00 88 1023.7
20260505114324 12 213 3.2 6.4 0.00 0.00 0.00 88 1023.7
20260505113824 12 219 3.2 6.4 0.00 0.00 0.00 88 1023.6
20260505113325 12 243 1.6 8.0 0.00 0.00 0.00 88 1023.7
20260505112824 12 161 1.6 8.0 0.00 0.00 0.00 88 1023.6
20260505112324 12 223 1.6 8.0 0.00 0.00 0.00 88 1023.6
20260505111823 12 238 1.6 6.4 0.00 0.00 0.00 88 1023.6
20260505111321 12 207 1.6 6.4 0.00 0.00 0.00 88 1023.5
20260505110818 12 184 1.6 6.4 0.00 0.00 0.00 88 1023.4
20260505110318 12 206 0.0 4.8 0.00 0.00 0.00 88 1023.5
20260505101807 12 176 1.6 6.4 0.00 0.00 0.00 89 1023.2
20260505101308 12 142 1.6 6.4 0.00 0.00 0.00 89 1023.2
20260505100807 12 146 1.6 6.4 0.00 0.00 0.00 89 1023.1
20260505100308 12 145 0.0 4.8 0.00 0.00 0.00 89 1023.3
20260505095805 12 145 0.0 3.2 0.00 0.00 0.00 89 1023.1
20260505095307 12 145 0.0 3.2 0.00 0.00 0.00 89 1023.2
20260505094800 12 150 0.0 1.6 0.00 0.00 0.00 89 1023.1
20260505094300 12 147 0.0 1.6 0.00 0.00 0.00 89 1023.0
20260505093800 12 147 0.0 3.2 0.00 0.00 0.00 89 1023.0
20260505093300 12 146 0.0 3.2 0.00 0.00 0.00 89 1022.9
20260505092759 12 146 0.0 1.6 0.00 0.00 0.00 89 1022.9
20260505092301 12 148 0.0 3.2 0.00 0.00 0.00 89 1022.9
20260505091758 12 147 0.0 3.2 0.00 0.00 0.00 89 1022.9
20260505091255 12 147 1.6 4.8 0.00 0.00 0.00 89 1022.9
20260505090756 11 147 1.6 4.8 0.00 0.00 0.00 89 1022.9
20260505090256 11 142 0.0 4.8 0.00 0.00 0.00 89 1022.9
20260505085754 11 187 0.0 3.2 0.00 0.00 0.00 89 1022.9
20260505085254 11 186 0.0 3.2 0.00 0.00 0.00 89 1022.9
20260505084748 11 186 0.0 4.8 0.00 0.00 0.00 90 1022.9
20260505084245 11 205 0.0 4.8 0.00 0.00 0.00 89 1022.9
20260505083745 11 204 0.0 3.2 0.00 0.00 0.00 89 1023.0
20260505083247 11 205 0.0 4.8 0.00 0.00 0.00 89 1022.9
20260505082746 11 205 1.6 4.8 0.00 0.00 0.00 90 1022.9
20260505082245 11 178 1.6 6.4 0.00 0.00 0.00 90 1022.8
20260505081745 11 179 1.6 6.4 0.00 0.00 0.00 90 1022.9
20260505081244 11 166 0.0 6.4 0.00 0.00 0.00 90 1022.9
20260505080743 11 167 0.0 4.8 0.00 0.00 0.00 90 1022.9
20260505080240 11 167 0.0 3.2 0.00 0.00 0.00 89 1022.9
20260505075741 11 169 1.6 3.2 0.00 0.00 0.00 89 1022.8
20260505075240 11 169 1.6 6.4 0.00 0.00 0.00 89 1022.8
20260505074739 11 170 1.6 6.4 0.00 0.00 0.00 89 1022.7
20260505074240 11 186 1.6 6.4 0.00 0.00 0.00 89 1022.7
20260505073740 11 165 1.6 6.4 0.00 0.00 0.00 89 1022.6
20260505073236 11 214 0.0 4.8 0.00 0.00 0.00 89 1022.6
20260505072736 11 158 0.0 3.2 0.00 0.00 0.00 89 1022.7
20260505072235 11 158 0.0 3.2 0.00 0.00 0.00 89 1022.7
20260505071736 11 171 0.0 6.4 0.00 0.00 0.00 88 1022.7
20260505071235 11 171 1.6 6.4 0.00 0.00 0.00 88 1022.6
20260505070737 11 238 0.0 4.8 0.00 0.00 0.00 88 1022.4
20260505070232 11 211 0.0 3.2 0.00 0.00 0.00 88 1022.3
20260505065733 12 211 0.0 3.2 0.00 0.00 0.00 88 1022.3
20260505065228 12 211 0.0 4.8 0.00 0.00 0.00 88 1022.3
20260505064727 12 211 1.6 4.8 0.00 0.00 0.00 88 1022.4
20260505064226 12 231 3.2 6.4 0.00 0.00 0.00 88 1022.3
20260505063725 12 219 3.2 6.4 0.00 0.00 0.00 88 1022.2
20260505063226 12 232 3.2 9.7 0.00 0.00 0.00 87 1022.3
20260505062727 12 221 3.2 9.7 0.00 0.00 0.00 87 1022.2
20260505062223 12 232 1.6 8.0 0.00 0.00 0.00 87 1022.2
20260505061721 12 220 1.6 9.7 0.00 0.00 0.00 87 1022.3
20260505061223 12 208 1.6 9.7 0.00 0.00 0.00 87 1022.2
20260505060723 12 287 1.6 4.8 0.00 0.00 0.00 87 1022.3
20260505060219 12 225 1.6 9.7 0.00 0.00 0.00 87 1022.3
20260505055720 12 211 3.2 9.7 0.00 0.00 0.00 87 1022.2
20260505055221 12 209 1.6 12.9 0.00 0.00 0.00 86 1022.1
20260505054715 12 198 3.2 12.9 0.00 0.00 0.00 86 1022.2
20260505054214 12 199 3.2 8.0 0.00 0.00 0.00 86 1022.1
20260505053714 13 11 1.6 8.0 0.00 0.00 0.00 86 1022.1
20260505053215 13 198 3.2 6.4 0.00 0.00 0.00 86 1022.1
20260505052713 13 219 3.2 11.3 0.00 0.00 0.00 86 1022.1
20260505052214 13 232 3.2 11.3 0.00 0.00 0.00 86 1022.1
20260505051714 13 215 3.2 9.7 0.00 0.00 0.00 85 1022.1
20260505051210 13 237 3.2 8.0 0.00 0.00 0.00 85 1022.1
20260505050710 13 227 3.2 9.7 0.00 0.00 0.00 85 1022.0
20260505050211 13 192 3.2 9.7 0.00 0.00 0.00 85 1021.9
20260505041707 15 163 1.6 6.4 0.00 0.00 0.00 82 1021.3
20260505041201 15 184 1.6 4.8 0.00 0.00 0.00 81 1021.2
20260505040702 15 194 1.6 4.8 0.00 0.00 0.00 81 1021.1
20260505040202 16 220 1.6 4.8 0.00 0.00 0.00 80 1020.9
20260505035701 16 222 1.6 6.4 0.00 0.00 0.00 79 1020.8
20260505035202 16 215 1.6 6.4 0.00 0.00 0.00 79 1020.7
20260505034703 16 197 1.6 4.8 0.00 0.00 0.00 78 1020.7
20260505034157 16 221 1.6 4.8 0.00 0.00 0.00 77 1020.7
20260505033659 16 217 1.6 4.8 0.00 0.00 0.00 77 1020.6
20260505033158 17 229 1.6 6.4 0.00 0.00 0.00 76 1020.5
20260505032659 17 205 3.2 8.0 0.00 0.00 0.00 76 1020.3
20260505032155 17 225 3.2 9.7 0.00 0.00 0.00 75 1020.3
20260505031653 17 239 3.2 12.9 0.00 0.00 0.00 75 1020.3
20260505031154 17 257 4.8 12.9 0.00 0.00 0.00 74 1020.2
20260505030652 18 261 3.2 11.3 0.00 0.00 0.00 73 1020.3
20260505030157 18 236 3.2 11.3 0.00 0.00 0.00 73 1020.1
20260505025652 18 261 3.2 11.3 0.00 0.00 0.00 72 1020.0
20260505025149 19 238 4.8 11.3 0.00 0.00 0.00 72 1019.9
20260505024647 19 213 6.4 14.5 0.00 0.00 0.00 72 1019.8
20260505024148 19 189 4.8 14.5 0.00 0.00 0.00 72 1019.7
20260505023643 20 188 4.8 12.9 0.00 0.00 0.00 73 1019.7
20260505023141 20 188 4.8 16.1 0.00 0.00 0.00 73 1019.7
20260505022641 20 193 4.8 16.1 0.00 0.00 0.00 72 1019.6
20260505022142 20 223 6.4 20.9 0.00 0.00 0.00 71 1019.6
20260505021641 20 273 6.4 20.9 0.00 0.00 0.00 71 1019.6
20260505021142 21 236 4.8 12.9 0.00 0.00 0.00 70 1019.6
20260505020637 21 208 6.4 12.9 0.00 0.00 0.00 69 1019.6
20260505020137 21 238 8.0 16.1 0.00 0.00 0.00 69 1019.6
20260505015635 21 243 9.7 17.7 0.00 0.00 0.00 69 1019.5
20260505015135 21 275 8.0 17.7 0.00 0.00 0.00 67 1019.5
20260505014635 22 220 6.4 17.7 0.00 0.00 0.00 67 1019.5
20260505014136 22 279 6.4 16.1 0.00 0.00 0.00 67 1019.5
20260505013629 22 254 4.8 14.5 0.00 0.00 0.00 67 1019.4
20260505013129 22 237 6.4 12.9 0.00 0.00 0.00 67 1019.4
20260505012629 22 251 6.4 12.9 0.00 0.00 0.00 67 1019.4
20260505012129 23 211 6.4 14.5 0.00 0.00 0.00 67 1019.5
20260505011629 23 261 6.4 14.5 0.00 0.00 0.00 67 1019.5
20260505011129 23 290 8.0 14.5 0.00 0.00 0.00 66 1019.5
20260505010626 23 277 6.4 14.5 0.00 0.00 0.00 66 1019.5
20260505010125 23 226 4.8 12.9 0.00 0.00 0.00 65 1019.6
20260505005626 23 265 6.4 14.5 0.00 0.00 0.00 66 1019.6
20260505005125 23 262 6.4 16.1 0.00 0.00 0.00 65 1019.6
20260505004622 23 269 6.4 16.1 0.00 0.00 0.00 64 1019.5
20260505004124 24 274 6.4 11.3 0.00 0.00 0.00 65 1019.6
20260505003621 24 253 6.4 14.5 0.00 0.00 0.00 65 1019.6
20260505003121 24 242 4.8 14.5 0.00 0.00 0.00 64 1019.6
20260505002622 25 225 4.8 11.3 0.00 0.00 0.00 64 1019.5
20260505002119 25 172 3.2 11.3 0.00 0.00 0.00 63 1019.7
20260505001617 25 202 3.2 11.3 0.00 0.00 0.00 64 1019.7
20260505001117 25 156 3.2 9.7 0.00 0.00 0.00 63 1019.8
20260505000613 25 146 3.2 8.0 0.00 0.00 0.00 63 1019.7
20260505000113 25 153 3.2 11.3 0.00 0.00 0.00 63 1019.8
20260504235611 25 217 3.2 11.3 0.00 0.00 0.00 63 1019.7
20260504235111 25 174 1.6 6.4 0.00 0.00 0.00 63 1019.8
20260504234610 24 216 3.2 12.9 0.00 0.00 0.00 63 1019.8
20260504234112 24 168 4.8 12.9 0.00 0.00 0.00 64 1019.9
20260504233605 24 167 3.2 11.3 0.00 0.00 0.00 65 1019.9
20260504233105 24 252 3.2 8.0 0.00 0.00 0.00 63 1019.9
20260504232605 24 223 3.2 11.3 0.00 0.00 0.00 63 1020.0
20260504232104 24 150 3.2 11.3 0.00 0.00 0.00 65 1019.9
20260504231605 24 113 1.6 11.3 0.00 0.00 0.00 64 1020.0
20260504231106 24 165 3.2 8.0 0.00 0.00 0.00 63 1019.9
20260504230559 24 251 4.8 14.5 0.00 0.00 0.00 64 1020.0
20260504230059 23 137 4.8 14.5 0.00 0.00 0.00 67 1020.1
20260504225559 23 142 4.8 12.9 0.00 0.00 0.00 66 1020.1
20260504225100 23 178 4.8 9.7 0.00 0.00 0.00 65 1020.2
20260504224559 23 158 3.2 12.9 0.00 0.00 0.00 67 1020.2
20260504224100 23 182 4.8 12.9 0.00 0.00 0.00 66 1020.3
20260504223558 23 190 4.8 12.9 0.00 0.00 0.00 66 1020.4
20260504223055 23 149 4.8 12.9 0.00 0.00 0.00 66 1020.3
20260504222556 23 80 4.8 12.9 0.00 0.00 0.00 66 1020.5
20260504222055 23 130 4.8 12.9 0.00 0.00 0.00 67 1020.6
20260504221553 23 111 4.8 17.7 0.00 0.00 0.00 68 1020.6
20260504221054 23 224 6.4 17.7 0.00 0.00 0.00 68 1020.7
20260504220548 23 142 6.4 16.1 0.00 0.00 0.00 67 1020.7
20260504220047 23 120 6.4 14.5 0.00 0.00 0.00 69 1020.8
20260504215547 22 103 4.8 12.9 0.00 0.00 0.00 69 1020.7
20260504215046 22 135 4.8 12.9 0.00 0.00 0.00 68 1020.9
20260504214547 22 162 4.8 12.9 0.00 0.00 0.00 69 1021.1
20260504214048 22 156 4.8 12.9 0.00 0.00 0.00 69 1021.1
20260504213542 22 86 4.8 12.9 0.00 0.00 0.00 67 1021.1
20260504213043 22 144 3.2 12.9 0.00 0.00 0.00 69 1021.3
20260504212544 22 182 4.8 12.9 0.00 0.00 0.00 68 1021.3
20260504212042 22 219 4.8 19.3 0.00 0.00 0.00 69 1021.3
20260504211540 22 115 3.2 19.3 0.00 0.00 0.00 70 1021.3
20260504211042 21 130 4.8 12.9 0.00 0.00 0.00 72 1021.4
20260504210536 21 163 4.8 12.9 0.00 0.00 0.00 71 1021.5
20260504210034 21 207 3.2 12.9 0.00 0.00 0.00 70 1021.6
20260504205532 21 106 4.8 12.9 0.00 0.00 0.00 74 1021.6
20260504205033 21 142 4.8 12.9 0.00 0.00 0.00 73 1021.7
20260504204532 21 225 4.8 12.9 0.00 0.00 0.00 70 1021.9
20260504204034 21 184 4.8 12.9 0.00 0.00 0.00 72 1021.9
20260504203529 20 121 4.8 12.9 0.00 0.00 0.00 74 1022.0
20260504203028 20 317 4.8 12.9 0.00 0.00 0.00 73 1022.0
20260504202530 20 148 4.8 12.9 0.00 0.00 0.00 75 1022.0
20260504202029 20 153 4.8 11.3 0.00 0.00 0.00 73 1022.0
20260504201527 20 165 3.2 12.9 0.00 0.00 0.00 74 1022.1
20260504201026 19 147 3.2 12.9 0.00 0.00 0.00 74 1022.1
20260504200521 19 115 4.8 14.5 0.00 0.00 0.00 73 1022.1
20260504200021 19 157 4.8 14.5 0.00 0.00 0.00 73 1022.1
20260504195521 19 167 4.8 14.5 0.00 0.00 0.00 73 1022.1
20260504195020 19 123 4.8 14.5 0.00 0.00 0.00 74 1022.1
20260504194520 19 170 3.2 12.9 0.00 0.00 0.00 74 1022.3
20260504194022 18 201 4.8 11.3 0.00 0.00 0.00 75 1022.1
20260504193519 18 194 4.8 11.3 0.00 0.00 0.00 76 1022.2
20260504193020 18 191 4.8 11.3 0.00 0.00 0.00 76 1022.0
20260504192513 18 201 4.8 14.5 0.00 0.00 0.00 78 1022.1
20260504192012 17 133 4.8 16.1 0.00 0.00 0.00 78 1022.2
20260504191508 17 170 4.8 16.1 0.00 0.00 0.00 78 1022.3
20260504191008 17 126 4.8 16.1 0.00 0.00 0.00 77 1022.4
20260504190510 17 167 4.8 12.9 0.00 0.00 0.00 78 1022.4
20260504190008 17 131 3.2 12.9 0.00 0.00 0.00 78 1022.4
20260504185509 17 115 4.8 14.5 0.00 0.00 0.00 80 1022.5
20260504185009 17 150 4.8 14.5 0.00 0.00 0.00 80 1022.5
20260504184504 16 192 4.8 12.9 0.00 0.00 0.00 79 1022.5
20260504184006 17 182 4.8 12.9 0.00 0.00 0.00 79 1022.6
20260504183505 16 186 4.8 11.3 0.00 0.00 0.00 81 1022.5
20260504183004 16 156 4.8 12.9 0.00 0.00 0.00 80 1022.5
20260504182504 16 175 3.2 12.9 0.00 0.00 0.00 81 1022.5
20260504182006 16 204 4.8 14.5 0.00 0.00 0.00 81 1022.4
20260504181501 16 121 4.8 14.5 0.00 0.00 0.00 81 1022.5
20260504181001 16 211 4.8 14.5 0.00 0.00 0.00 81 1022.4
20260504180501 16 151 6.4 14.5 0.00 0.00 0.00 81 1022.4
20260504180001 16 163 4.8 11.3 0.00 0.00 0.00 81 1022.5
20260504175500 16 190 4.8 14.5 0.00 0.00 0.00 81 1022.4
20260504175002 16 191 4.8 14.5 0.00 0.00 0.00 81 1022.4
20260504174457 16 173 4.8 12.9 0.00 0.00 0.00 82 1022.5
20260504173957 15 144 4.8 12.9 0.00 0.00 0.00 82 1022.4
20260504173458 15 171 4.8 12.9 0.00 0.00 0.00 82 1022.4
20260504172954 15 162 3.2 14.5 0.00 0.00 0.00 82 1022.4
20260504172455 15 216 3.2 14.5 0.00 0.00 0.00 83 1022.4
20260504171953 15 195 3.2 11.3 0.00 0.00 0.00 83 1022.4
20260504171452 15 194 4.8 16.1 0.00 0.00 0.00 83 1022.4
20260504170953 15 159 4.8 16.1 0.00 0.00 0.00 83 1022.4
20260504170447 15 149 4.8 12.9 0.00 0.00 0.00 84 1022.3
20260504160435 13 165 4.8 17.7 0.00 0.00 0.00 86 1022.4
20260504150929 13 231 4.8 16.1 0.00 0.00 0.00 87 1022.2
20260504150424 13 148 6.4 16.1 0.00 0.00 0.00 87 1022.1
20260504140916 12 205 4.8 11.3 0.00 0.00 0.00 89 1021.5
20260504140412 12 153 4.8 19.3 0.00 0.00 0.00 89 1021.4
20260504130400 11 175 4.8 12.9 0.00 0.00 0.00 89 1020.6